Weather History for Reidsville, NC

Change the Weather History Date:

Monday, October 7, 2013

  Actual Average (KGSO) Record (KGSO)
Temperature  
Mean Temperature 64 °F 62 °F  
Max Temperature 75 °F 73 °F 92 °F (1951)
Min Temperature 54 °F 52 °F 33 °F (1935)
Degree Days  
Heating Degree Days 0 4  
Month to date heating degree days 25  
Since 1 July heating degree days 56  
Cooling Degree Days 0 2  
Month to date cooling degree days 15  
Year to date cooling degree days 1462  
Growing Degree Days 14 (Base 50)    
Moisture  
Dew Point 64 °F    
Average Humidity 88    
Maximum Humidity 97    
Minimum Humidity 66    
Precipitation  
Precipitation 0.64 in 0.10 in 1.84 in (1965)
Month to date precipitation 0.71  
Year to date precipitation 33.69  
Sea Level Pressure  
Sea Level Pressure 29.91 in    
Wind  
Wind Speed 4 mph (SSW)    
Max Wind Speed 10 mph    
Max Gust Speed 20 mph    
Visibility 10 miles    
Events Rain    
T = Trace of Precipitation, MM = Missing Value Source: NWS Daily Summary

Daily Weather History Graph

Daily Weather History Graph

Search for Another Location

Airport:

Trip Planner

Search our weather history database for the weather conditions in past years. The results will help you decide how hot, cold, wet, or windy it might be!

Date:

Astronomy

Oct. 07, 2013 Rise Set
Actual Time 7:19 AM EDT 6:53 PM EDT
Civil Twilight 6:54 AM EDT 7:19 PM EDT
Nautical Twilight 6:24 AM EDT 7:49 PM EDT
Astronomical Twilight 5:54 AM EDT 8:19 PM EDT
Moon 10:02 AM EDT (10/7) 8:43 PM EDT (10/7)
Length of Visible Light 12h 25m
Length of Day
11h 34m
Waxing Crescent, 8% of the Moon is Illuminated
Oct 7
Waxing Crescent
Oct 11
First Quarter
Oct 18
Full
Oct 26
Last Quarter
Nov 3
New

Hourly Weather History & Observations

Time (EDT) Temp. Dew Point Humidity Pressure Visibility Wind Dir Wind Speed Gust Speed Precip Events Conditions
12:15 AM 69.4 °F 68.2 °F 96% 29.93 in 10.0 mi South 4.6 mph - N/A   Mostly Cloudy
12:35 AM 70.2 °F 68.4 °F 94% 29.92 in 10.0 mi South 5.8 mph - N/A   Mostly Cloudy
12:55 AM 70.7 °F 68.7 °F 93% 29.92 in 10.0 mi South 5.8 mph - N/A   Scattered Clouds
1:15 AM 71.1 °F 68.9 °F 93% 29.92 in 10.0 mi SSW 4.6 mph - N/A   Mostly Cloudy
1:35 AM 71.2 °F 68.9 °F 92% 29.92 in 10.0 mi South 4.6 mph - N/A   Overcast
1:55 AM 71.6 °F 68.9 °F 91% 29.91 in 10.0 mi South 3.5 mph - N/A   Overcast
2:15 AM 72.0 °F 68.9 °F 90% 29.90 in 10.0 mi South 3.5 mph - N/A   Overcast
2:35 AM 71.8 °F 68.9 °F 91% 29.88 in 10.0 mi SSE 3.5 mph - N/A   Overcast
2:55 AM 72.0 °F 68.9 °F 90% 29.88 in 10.0 mi South 3.5 mph - N/A   Overcast
3:15 AM 72.0 °F 68.9 °F 90% 29.87 in 10.0 mi South 4.6 mph - N/A Rain Light Rain
3:35 AM 71.6 °F 69.1 °F 92% 29.86 in 10.0 mi South 5.8 mph - N/A   Overcast
3:55 AM 71.6 °F 69.1 °F 92% 29.86 in 10.0 mi SSE 4.6 mph - N/A   Overcast
4:15 AM 71.8 °F 68.9 °F 91% 29.85 in 10.0 mi South 5.8 mph - N/A   Overcast
4:35 AM 72.0 °F 69.1 °F 91% 29.85 in 10.0 mi SSE 6.9 mph - N/A   Overcast
4:55 AM 71.8 °F 68.9 °F 91% 29.85 in 10.0 mi South 8.1 mph - N/A   Overcast
5:15 AM 71.8 °F 68.9 °F 91% 29.85 in 10.0 mi South 8.1 mph - N/A   Overcast
5:35 AM 71.4 °F 69.1 °F 92% 29.84 in 7.0 mi South 5.8 mph - N/A   Light Drizzle
5:55 AM 71.6 °F 69.3 °F 92% 29.83 in 7.0 mi South 6.9 mph - N/A Rain Light Rain
6:15 AM 71.6 °F 69.4 °F 93% 29.83 in 10.0 mi South 5.8 mph - N/A   Overcast
6:35 AM 71.8 °F 69.3 °F 92% 29.83 in 10.0 mi South 6.9 mph - N/A   Light Drizzle
6:55 AM 71.6 °F 69.4 °F 93% 29.83 in 10.0 mi SSE 6.9 mph - N/A Rain Light Rain
7:15 AM 71.6 °F 69.4 °F 93% 29.84 in 10.0 mi South 5.8 mph - N/A   Overcast
7:35 AM 71.6 °F 69.4 °F 93% 29.83 in 7.0 mi South 8.1 mph - N/A   Overcast
7:55 AM 71.6 °F 69.6 °F 93% 29.84 in 7.0 mi South 5.8 mph - N/A Rain Light Rain
8:15 AM 71.6 °F 69.8 °F 94% 29.84 in 7.0 mi South 8.1 mph - N/A Rain Light Rain
8:35 AM 72.1 °F 69.8 °F 92% 29.84 in 10.0 mi South 6.9 mph - N/A   Overcast
8:55 AM 68.5 °F 66.2 °F 92% 29.88 in 0.5 mi WSW 10.4 mph 19.6 mph 0.50 in Rain Heavy Rain
9:15 AM 67.6 °F 66.2 °F 95% 29.88 in 3.0 mi SW 9.2 mph - 0.05 in Rain Heavy Rain
9:35 AM 67.6 °F 66.4 °F 96% 29.87 in 10.0 mi South 5.8 mph - 0.08 in Rain Light Rain
9:55 AM 67.8 °F 66.6 °F 96% 29.88 in 10.0 mi South 6.9 mph - 0.09 in Rain Light Rain
10:15 AM 67.3 °F 65.7 °F 95% 29.88 in 10.0 mi South 5.8 mph - 0.01 in Rain Rain
10:35 AM 67.6 °F 65.8 °F 94% 29.88 in 10.0 mi SW 4.6 mph - 0.02 in Rain Light Rain
10:55 AM 67.3 °F 65.8 °F 95% 29.89 in 10.0 mi Calm Calm - 0.03 in Rain Light Rain
11:15 AM 67.3 °F 66.2 °F 96% 29.89 in 10.0 mi Calm Calm - N/A Rain Light Rain
11:35 AM 67.1 °F 66.2 °F 97% 29.87 in 10.0 mi Calm Calm - 0.01 in Rain Light Rain
11:55 AM 68.0 °F 66.9 °F 96% 29.89 in 10.0 mi Calm Calm - 0.01 in   Light Drizzle
12:15 PM 68.0 °F 67.1 °F 97% 29.90 in 10.0 mi Calm Calm - N/A   Overcast
12:35 PM 68.4 °F 67.3 °F 96% 29.89 in 3.0 mi Calm Calm - 0.01 in Rain Light Rain
12:55 PM 69.1 °F 67.8 °F 96% 29.89 in 10.0 mi SW 3.5 mph - 0.01 in   Overcast
1:15 PM 70.5 °F 68.0 °F 92% 29.89 in 10.0 mi WSW 3.5 mph - N/A   Overcast
1:35 PM 69.8 °F 66.2 °F 88% 29.89 in 10.0 mi WNW 3.5 mph - N/A   Overcast
1:55 PM 73.8 °F 66.9 °F 79% 29.88 in 10.0 mi West 4.6 mph - N/A   Mostly Cloudy
2:15 PM 72.1 °F 65.3 °F 79% 29.88 in 10.0 mi NW 3.5 mph - N/A   Mostly Cloudy
2:35 PM 74.1 °F 64.9 °F 73% 29.88 in 10.0 mi Calm Calm - N/A   Overcast
2:55 PM 75.0 °F 64.2 °F 69% 29.88 in 10.0 mi West 4.6 mph - N/A   Mostly Cloudy
3:15 PM 74.8 °F 63.0 °F 66% 29.89 in 10.0 mi West 4.6 mph - N/A   Clear
3:35 PM 73.6 °F 62.8 °F 69% 29.89 in 10.0 mi WNW 3.5 mph - N/A   Clear
3:55 PM 72.9 °F 63.3 °F 72% 29.89 in 10.0 mi NW 3.5 mph - N/A   Clear
4:15 PM 72.0 °F 63.3 °F 74% 29.89 in 10.0 mi North 6.9 mph - N/A   Clear
4:35 PM 69.8 °F 61.0 °F 73% 29.90 in 10.0 mi NNW 5.8 mph - N/A   Scattered Clouds
4:55 PM 69.3 °F 60.1 °F 72% 29.91 in 10.0 mi North 3.5 mph - N/A   Clear
5:15 PM 68.9 °F 59.7 °F 72% 29.91 in 10.0 mi North 3.5 mph - N/A   Clear
5:35 PM 68.0 °F 59.9 °F 75% 29.91 in 10.0 mi Calm Calm - N/A   Clear
5:55 PM 66.7 °F 60.4 °F 80% 29.92 in 10.0 mi Calm Calm - N/A   Clear
6:15 PM 66.0 °F 59.2 °F 79% 29.92 in 10.0 mi Calm Calm - N/A   Clear
6:35 PM 64.9 °F 58.5 °F 79% 29.93 in 10.0 mi Calm Calm - N/A   Clear
6:55 PM 63.9 °F 58.1 °F 81% 29.94 in 10.0 mi Calm Calm - N/A   Clear
7:15 PM 62.2 °F 58.3 °F 87% 29.94 in 10.0 mi Calm Calm - N/A   Clear
7:35 PM 61.5 °F 58.3 °F 89% 29.95 in 10.0 mi Calm Calm - N/A   Clear
7:55 PM 59.4 °F 57.7 °F 94% 29.96 in 10.0 mi Calm Calm - N/A   Clear
8:15 PM 59.4 °F 58.1 °F 96% 29.97 in 10.0 mi Calm Calm - N/A   Clear
8:35 PM 59.2 °F 56.8 °F 92% 29.98 in 10.0 mi Calm Calm - N/A   Clear
8:55 PM 58.8 °F 56.3 °F 91% 29.99 in 10.0 mi North 3.5 mph - N/A   Clear
9:15 PM 60.1 °F 54.7 °F 82% 29.99 in 10.0 mi North 3.5 mph - N/A   Clear
9:35 PM 60.3 °F 52.9 °F 77% 30.01 in 10.0 mi NNE 3.5 mph - N/A   Clear
9:55 PM 57.6 °F 52.7 °F 84% 30.02 in 10.0 mi Calm Calm - N/A   Clear
10:15 PM 54.7 °F 51.6 °F 89% 30.04 in 10.0 mi Calm Calm - N/A   Clear
10:35 PM 54.5 °F 51.8 °F 91% 30.05 in 10.0 mi North 3.5 mph - N/A   Clear
10:55 PM 57.0 °F 52.2 °F 84% 30.05 in 10.0 mi North 4.6 mph - N/A   Clear
11:15 PM 57.2 °F 51.8 °F 82% 30.06 in 10.0 mi North 3.5 mph - N/A   Clear
11:35 PM 56.8 °F 51.8 °F 83% 30.06 in 10.0 mi North 3.5 mph - N/A   Clear
11:55 PM 57.2 °F 51.1 °F 80% 30.06 in 10.0 mi North 3.5 mph - N/A   Clear